Home   Weather   Herford   Past weeks

Flag for Germany Past Weather in Herford, North Rhine-Westphalia, Germany — Yesterday and Last 2 Weeks

Now
45 °F

Quite cool.


Feels Like: 36 °F
Forecast: 45 / 52 °F
Wind: 21 mph from Southwest

Location: Bueckeburg

Current Time: Feb 26, 2017 at 4:15:03 am

Latest Report: Feb 26, 2017 at 3:20 am


Visibility: 4 mi

Pressure: 29.86 "Hg

Humidity: 66%

Dew Point: 34 °F

Location of HerfordLocation

Past Weather in Herford — Graph

°F

Herford Temperature Yesterday

Maximum temperature yesterday: 45 °F (at 1:20 pm)
Minimum temperature yesterday: 32 °F (at 12:20 am)
Average temperature yesterday: 39 °F

High & Low Weather Summary for the Past Weeks

 TemperatureHumidityPressure
High54 °F (Feb 15, 3:20 pm)100% (Feb 17, 11:20 am)30.54 "Hg (Feb 17, 11:20 am)
Low23 °F (Feb 14, 4:20 am)41% (Feb 15, 3:20 pm)29.09 "Hg (Feb 23, 7:37 pm)
Average41 °F82%30.07 "Hg
* Reported Feb 11 2:20 am — Feb 26 2:20 am, Herford, Weather by CustomWeather, © 2017

Note: Actual official high and low records may vary slightly from our data, if they occured in-between our weather recording intervals... More about our weather records

Advertising

Herford Weather History for the Previous 24 Hours

Scroll right to see more
 ConditionsComfort  
Time TempWeatherWind HumidityBarometerVisibility
2:20 am
Sun, Feb 26
45 °FQuite cool.16 mph66%29.86 "Hg4 mi
1:20 am45 °FQuite cool.17 mph61%29.89 "Hg4 mi
12:20 am45 °FQuite cool.16 mph61%29.89 "Hg4 mi
11:20 pm
Sat, Feb 25
45 °FQuite cool.15 mph61%29.92 "Hg4 mi
10:20 pm45 °FQuite cool.13 mph61%29.92 "Hg4 mi
9:20 pm45 °FQuite cool.15 mph61%29.92 "Hg4 mi
8:20 pm45 °FQuite cool.14 mph61%29.95 "Hg4 mi
7:20 pm45 °FQuite cool.14 mph61%29.95 "Hg4 mi
6:20 pm45 °FQuite cool.15 mph61%29.95 "Hg4 mi
5:20 pm43 °FQuite cool.17 mph71%29.98 "Hg4 mi
4:20 pm43 °FQuite cool.21 mph71%30.01 "Hg4 mi
3:20 pm45 °FQuite cool.12 mph66%30.04 "Hg4 mi
2:20 pm45 °FQuite cool.12 mph71%30.04 "Hg4 mi
1:20 pm45 °FQuite cool.15 mph66%30.07 "Hg4 mi
12:20 pm43 °FQuite cool.13 mph71%30.07 "Hg4 mi
11:20 am41 °FQuite cool.17 mph76%30.09 "Hg4 mi
10:20 am39 °FChilly.13 mph81%30.09 "Hg3 mi
9:20 am37 °FChilly.13 mph87%30.12 "Hg3 mi
8:20 am36 °FChilly.13 mph87%30.12 "Hg3 mi
7:20 am36 °FChilly.8 mph87%30.12 "Hg3 mi
6:20 am34 °FChilly.8 mph87%30.09 "Hg3 mi
5:20 am32 °FChilly.7 mph93%30.09 "Hg4 mi
4:20 am32 °FChilly.6 mph87%30.09 "Hg4 mi
Weather by CustomWeather, © 2017

See weather overviewHow to use our weather pages